Location: Bazugues
(43.4465°N, 0.3432°E)
Time: 19:10:55
(UTC+00:00)

UNISAT 6 - Pass Details

Date: 17 May 2026
Orbit: 571 x 636 km, 97.8° (Epoch: 10 June)

Event Time Altitude Azimuth Distance (km) Brightness Sun altitude
Rises 01:47:22 0° 120° (ESE) 2,912 ? -22.2°
Reaches altitude 10° 01:50:25 10° 97° (E) 2,000 ? -21.9°
Maximum altitude 01:52:49 15° 63° (ENE) 1,699 ? -21.7°
Drops below altitude 10° 01:55:13 10° 29° (NNE) 1,989 ? -21.5°
Sets 01:58:13 0° 6° (N) 2,885 ? -21.2°
